CAPE
1 1 3 3 0 0 0 1 1 0 0 0 0 0 0 0 0 0 0 0 0 0 0 0 0 0 0 0 0 0 0 0 0 0 0 0 0 0 0 0 0 0 7 17 33 44 51
2 1 3 0 1 0 0 0 0 0 0 0 0 0 0 0 0 0 0 0 0 0 0 0 0 0 0 0 0 0 0 0 0 0 0 0 0 0 0 0 0 0 2 1 26 75 60
5 3 1 2 2 2 0 0 0 0 0 0 0 0 0 0 0 0 0 0 0 0 0 0 0 0 0 0 0 0 0 0 0 0 0 0 0 0 0 0 0 0 0 0 0 3 70
3 6 1 0 0 0 0 1 1 0 0 0 0 0 0 0 0 0 0 0 0 0 0 0 0 0 0 0 0 0 0 0 0 0 0 0 0 0 0 0 0 0 0 0 0 0 16
0 0 0 0 0 0 0 0 0 0 0 0 0 0 0 0 0 0 0 0 0 0 0 0 0 0 0 0 0 0 0 0 0 0 0 0 0 0 0 0 0 0 0 0 0 0 0
0 0 0 0 0 0 0 0 0 0 0 0 0 0 0 0 0 0 0 0 0 0 0 0 0 0 0 0 0 0 0 0 0 0 0 0 0 0 0 0 0 0 0 0 0 0 1
0 0 0 0 0 0 0 0 0 0 0 0 0 0 0 0 0 0 0 0 0 0 0 0 0 0 0 0 0 0 0 0 0 0 0 0 0 0 0 0 0 0 0 0 0 15 17
0 0 0 0 0 0 0 0 0 0 0 0 0 0 0 0 0 0 0 0 0 0 0 0 0 0 0 0 0 0 0 0 0 0 0 0 0 0 0 0 0 0 0 0 0 25 0
3 0 0 0 0 0 0 0 0 0 0 0 0 0 0 0 0 0 0 0 0 0 0 0 0 0 0 0 0 0 0 0 0 0 0 0 0 0 0 0 0 0 0 0 0 0 16
2 0 0 0 0 0 0 0 0 0 0 0 0 0 0 0 0 0 0 0 0 0 0 0 0 0 0 0 0 0 0 0 0 0 0 0 0 0 0 0 0 0 0 0 0 0 0
0 0 0 0 0 0 0 0 0 0 0 0 0 0 0 0 0 0 0 0 0 0 0 0 0 0 0 0 0 0 0 0 0 0 0 0 0 0 0 0 0 0 0 0 0 0 1
0 0 0 0 0 0 0 0 0 0 0 0 0 0 0 0 0 0 0 0 0 0 0 0 0 0 0 0 0 0 0 0 0 0 0 0 0 0 0 0 0 0 0 0 0 0 0
0 0 0 0 0 0 0 0 0 0 0 0 0 0 0 0 0 0 0 0 0 0 0 0 0 0 0 0 0 0 0 0 0 0 0 0 0 0 0 0 0 0 0 0 0 0 0
2 0 0 2 0 0 0 0 0 0 0 0 0 0 0 0 0 0 0 0 0 0 0 0 0 0 0 0 0 0 0 0 0 0 0 0 0 0 0 0 0 0 0 0 0 0 0
4 0 0 0 0 0 1 1 0 0 0 0 0 0 0 0 0 0 0 0 0 0 0 0 0 0 0 0 0 0 0 0 0 0 0 0 0 0 0 0 0 0 0 0 0 0 0
1 2 0 0 0 0 1 0 0 0 0 0 0 0 0 0 0 0 0 0 0 0 0 0 0 0 0 0 0 0 0 0 0 0 0 0 0 0 0 0 0 0 0 0 0 0 0
3 1 1 0 0 0 0 0 0 0 0 0 0 0 0 0 0 0 0 0 0 0 0 0 0 0 0 0 0 0 0 0 0 0 0 0 0 0 0 0 0 0 0 0 0 0 0
3 3 2 2 4 3 3 0 2 0 0 0 0 0 0 0 0 0 0 0 0 0 0 0 0 0 0 0 0 0 0 0 0 0 0 0 0 0 0 0 0 0 0 0 0 0 0
0 0 0 1 2 0 0 10 6 0 3 0 0 0 0 0 0 0 0 0 0 0 0 0 0 0 0 0 0 0 0 0 0 0 0 0 0 0 0 0 0 0 0 0 0 0 0
5 6 3 3 6 6 0 13 17 10 2 0 2 1 0 0 0 1 0 0 0 0 0 0 0 0 0 0 0 0 0 0 0 0 0 1 0 0 0 0 0 0 0 0 0 0 0
5 6 10 8 5 2 8 28 20 32 5 0 9 6 2 0 0 0 0 0 0 0 0 0 0 0 0 0 0 0 0 0 0 0 0 0 0 0 0 0 0 0 0 0 0 0 0
5 7 4 3 20 25 23 38 66 45 25 6 4 9 0 0 0 0 0 0 0 0 0 0 0 0 0 1 1 0 0 0 0 0 0 0 0 0 0 0 0 0 0 0 0 0 0
2 2 12 24 36 33 28 41 50 40 21 7 10 22 6 3 0 0 0 0 0 0 0 0 0 0 0 0 2 0 0 0 0 0 0 0 0 0 0 0 0 0 0 0 0 0 0
6 9 16 17 15 19 32 33 58 31 25 10 14 32 8 1 2 0 0 0 0 3 1 0 7 0 0 0 0 0 0 0 0 0 0 0 0 0 0 0 2 0 0 0 0 0 0
3 5 9 10 24 25 25 35 30 20 35 14 7 30 9 1 11 0 0 3 0 0 1 9 9 1 0 0 0 0 0 0 0 0 0 0 0 0 0 0 0 0 0 0 0 0 0
6 4 3 11 25 27 33 26 14 4 35 19 15 42 18 0 0 0 0 0 0 2 0 11 0 8 9 3 0 0 0 0 0 0 0 0 0 0 0 0 0 0 0 0 108 5 265
1 0 1 3 19 21 20 17 35 60 34 8 2 41 17 1 0 0 3 1 1 5 1 0 3 0 0 1 0 0 0 0 0 0 0 0 5 1 0 0 0 0 0 222 118 106 496
0 0 0 0 0 15 23 27 14 13 24 35 1 42 43 20 1 0 0 1 5 2 0 4 0 1 0 0 0 0 0 0 4 0 2 48 1 0 7 10 3 40 93 243 187 615 618
0 0 0 0 1 1 0 1 7 0 12 27 0 24 37 12 3 0 0 0 0 0 4 15 0 3 0 7 20 6 0 0 22 0 1 0 0 3 30 356 410 739 742 814 1210 1049 1336
CIN
-0 -0 -0 0 0 0 0 -0 -0 -0 0 -0 0 0 0 0 0 0 0 0 0 0 0 0 0 0 0 0 0 0 0 0 0 0 0 0 0 0 0 0 0 0 -30 -25 -29 -25 -50
-0 -0 -0 -0 -0 0 0 0 0 0 0 0 0 0 0 0 0 0 0 0 0 0 0 0 0 0 0 0 0 0 0 0 0 0 0 0 0 0 0 0 0 0 -24 -1 -12 -43 -57
-3 -1 0 -0 0 0 -0 0 0 0 0 0 0 0 0 0 0 0 0 0 0 0 0 0 0 0 0 0 0 0 0 0 0 0 0 0 0 0 0 0 0 0 0 0 0 -12 -36
-2 -2 -0 0 0 0 0 -0 -0 0 0 0 0 0 0 0 0 0 0 0 0 0 0 0 0 0 0 0 0 0 0 0 0 0 0 0 0 0 0 0 0 0 0 0 0 0 -26
0 0 0 0 0 0 0 0 0 0 0 0 0 0 0 0 0 0 0 0 0 0 0 0 0 0 0 0 0 0 0 0 0 0 0 0 0 0 0 0 0 0 0 0 0 0 -5
0 0 0 0 0 0 0 0 0 0 0 0 0 0 0 0 0 0 0 0 0 0 0 0 0 0 0 0 0 0 0 0 0 0 0 0 0 0 0 0 0 0 0 0 0 0 -20
0 0 0 0 0 0 0 0 0 0 0 0 0 0 0 0 0 0 0 0 0 0 0 0 0 0 0 0 0 0 0 0 0 0 0 0 0 0 0 0 0 0 0 0 0 -6 -49
-0 0 0 0 0 0 0 0 0 0 0 0 0 0 0 0 0 0 0 0 0 0 0 0 0 0 0 0 0 0 0 0 0 0 0 0 0 0 0 0 0 0 0 0 0 -3 0
-4 0 0 0 0 0 0 0 0 0 0 0 0 0 0 0 0 0 0 0 0 0 0 0 0 0 0 0 0 0 0 0 0 0 0 0 0 0 0 0 0 0 0 0 0 0 -17
-7 -0 0 0 0 0 0 0 0 0 0 0 0 0 0 0 0 0 0 0 0 0 0 0 0 0 0 0 0 0 0 0 0 0 0 0 0 0 0 0 0 0 0 0 0 0 0
0 0 0 0 0 0 0 0 0 0 0 0 0 0 0 0 0 0 0 0 0 0 0 0 0 0 0 0 0 0 0 0 0 0 0 0 0 0 0 0 0 0 0 0 0 0 -1
0 0 0 0 0 0 0 0 0 0 0 0 0 0 0 0 0 0 0 0 0 0 0 0 0 0 0 0 0 0 0 0 0 0 0 0 0 0 0 0 0 0 0 0 0 0 -2
0 0 0 0 0 0 0 0 0 0 0 0 0 0 0 0 0 0 0 0 0 0 0 0 0 0 0 0 0 0 0 0 0 0 0 0 0 0 0 0 0 0 0 0 0 0 0
-1 0 0 -1 0 0 0 0 0 0 0 0 0 0 0 0 0 0 0 0 0 0 0 0 0 0 0 0 0 0 0 0 0 0 0 0 0 0 0 0 0 0 0 0 0 0 0
-1 0 -0 0 0 0 -7 -8 0 0 0 0 0 0 0 0 0 0 0 0 0 0 0 0 0 0 0 0 0 0 0 0 0 0 0 0 0 0 0 0 0 0 0 0 0 0 0
-0 -0 0 0 0 0 -1 -0 -0 0 0 0 0 0 0 0 0 0 0 0 0 0 0 0 0 0 0 0 0 0 0 0 0 0 0 0 0 0 0 0 0 0 0 0 0 0 0
-0 -0 -0 -0 0 0 0 0 0 0 0 0 0 0 0 0 0 0 0 0 0 0 0 0 0 0 0 0 0 0 0 0 0 0 0 0 0 0 0 0 0 0 0 0 0 0 0
-0 -0 -0 -0 -1 -1 -2 0 -1 0 0 0 0 0 0 0 0 0 0 0 0 0 0 0 0 0 0 0 0 0 0 0 0 0 0 0 0 0 0 0 0 0 0 0 0 0 0
0 0 0 -0 -0 -0 0 -2 -3 0 -2 0 0 0 0 0 0 0 0 0 0 0 0 0 0 0 0 0 0 0 0 0 0 0 0 0 0 0 0 0 0 0 0 0 0 0 0
-0 -0 -0 -0 -0 -0 0 -5 -5 -7 -10 -1 -2 -1 0 0 0 -9 0 0 0 0 0 0 0 0 0 0 0 0 0 0 0 0 0 -11 0 0 0 0 0 0 0 0 0 0 0
-0 -0 -0 -0 -0 -0 -22 -6 -15 -10 -11 -1 -3 -4 -3 0 0 0 0 0 0 0 0 0 0 0 0 0 0 0 0 0 0 0 0 0 0 0 0 0 0 0 0 0 0 0 0
-0 -0 -0 -0 -0 -0 -0 -1 -17 -8 -6 -1 0 -0 -0 0 0 0 0 0 0 0 0 0 0 0 0 0 0 0 0 0 0 0 0 0 0 0 0 0 0 0 0 0 0 0 0
-0 -0 -0 0 -0 -0 -0 -1 -11 -12 -6 -0 -2 -1 -0 -3 -0 0 0 0 -4 -6 0 0 0 0 0 0 -1 0 0 0 0 0 0 0 0 0 0 0 0 0 0 0 0 0 0
-0 0 -0 -0 -0 -0 -0 -2 -1 -12 -4 -3 -1 -0 0 -0 -1 0 0 0 -11 -8 -0 0 -9 0 0 0 0 0 0 0 0 0 0 0 0 0 0 0 -13 0 0 0 0 0 0
-0 0 0 0 -0 -0 0 -0 -4 -8 -5 -4 -6 -0 0 -0 -0 0 0 -1 -0 0 -6 -4 -7 -1 0 0 0 0 0 0 0 0 0 0 0 0 0 0 0 0 0 0 0 0 -4
0 -0 -0 -0 -0 -0 -0 -1 -6 -9 -10 -4 -6 -4 -1 0 0 0 -0 0 0 -1 -0 -6 -3 -96 -83 -53 0 0 0 0 0 0 0 0 0 0 0 0 0 0 0 -2 -33 -17 -73
-0 -0 -0 0 -0 -0 -1 -1 -0 -0 -6 -5 -2 -5 -2 0 0 -1 -0 -1 -2 -4 -2 -1 -24 0 0 -25 0 0 0 0 0 0 0 0 -15 -4 0 0 0 0 0 -48 -24 -16 -76
0 0 0 0 0 -0 -0 -1 -0 -3 -5 -1 -0 -4 -1 -0 -0 -0 0 -0 -0 -0 -1 -3 0 -2 0 0 -1 0 0 -0 -5 0 -0 -6 -7 0 -20 -4 -7 -15 -30 -20 -61 -98 -100
0 0 0 0 -1 -0 0 0 0 0 -1 -0 -0 -2 -8 -2 -4 0 0 0 0 0 -1 -4 0 -11 -1 -2 -12 -2 0 0 -0 0 -8 -1 0 -2 -27 -19 -55 -82 -78 -74 -84 -99 -94
Wind_Speed
32 32 32 32 32 31 31 31 31 32 32 32 33 32 31 31 30 29 29 29 29 28 27 25 24 23 23 11 20 17 16 12 5 2 33 36 37 34 31 31 29 25 20 19 11 9 16
33 33 33 33 33 34 34 34 34 33 33 33 34 34 34 33 32 32 31 30 29 29 29 26 23 17 6 9 19 20 7 5 2 6 17 34 34 36 33 30 29 30 30 27 16 14 14
34 34 34 34 34 35 35 36 36 36 35 35 35 34 33 33 33 33 32 32 31 29 26 23 14 3 3 17 11 7 9 0 1 23 19 34 40 34 34 31 32 32 29 27 24 5 9
35 35 35 35 35 36 37 37 37 37 38 37 37 37 36 35 35 35 35 34 32 29 22 10 7 6 6 11 19 22 24 30 5 17 10 28 29 34 34 34 33 31 30 28 26 20 12
36 37 36 37 37 38 38 38 39 39 39 38 38 38 37 37 37 37 37 36 33 24 6 10 10 8 14 10 7 22 18 19 7 5 5 21 13 30 35 31 28 29 29 29 26 25 12
38 38 38 39 39 39 39 39 39 39 40 40 40 40 40 39 39 39 40 37 21 20 13 9 1 7 12 5 7 12 21 21 12 4 9 12 12 10 25 25 14 20 24 27 28 11 2
41 41 41 41 40 40 41 42 42 42 42 42 42 43 43 43 41 41 39 28 28 23 15 9 5 1 25 20 5 9 15 15 14 16 17 13 11 24 15 25 18 27 26 24 25 9 5
43 43 43 42 42 42 43 43 43 43 44 44 43 44 44 45 43 40 29 24 32 35 41 17 23 27 27 26 13 13 13 10 15 15 14 16 27 18 17 15 17 29 32 33 32 9 4
43 43 43 43 43 44 43 44 44 45 46 45 45 45 45 45 44 27 31 30 29 36 32 41 15 17 18 19 23 13 14 13 11 14 16 17 5 15 16 15 16 21 30 33 14 22 10
43 43 43 43 43 44 43 43 45 46 46 46 46 46 45 46 27 32 29 33 33 33 32 34 18 15 11 13 16 25 16 14 12 15 14 12 14 16 23 28 22 19 33 37 36 11 16
43 43 43 43 44 44 44 44 46 47 46 46 46 46 45 41 33 30 30 35 36 30 36 22 15 11 4 17 9 20 16 16 14 12 8 19 15 21 19 25 22 38 23 26 42 41 13
42 43 43 44 44 44 44 45 46 47 47 48 48 48 46 36 30 26 35 36 28 25 29 22 11 11 6 11 14 16 21 17 15 13 15 20 11 19 24 21 24 42 31 39 42 39 35
42 44 44 44 44 45 47 47 47 47 47 49 50 50 47 34 27 27 31 24 25 29 23 22 19 13 14 14 14 18 14 22 23 18 24 16 23 18 17 20 15 20 24 30 40 40 39
43 45 45 45 46 47 47 47 47 47 48 49 50 52 38 29 24 25 21 23 35 29 26 28 27 28 23 20 20 19 22 24 24 21 19 17 20 23 13 24 18 21 20 28 33 37 37
44 45 45 46 46 46 47 47 47 48 48 50 51 41 37 31 24 19 23 33 32 28 26 31 37 33 34 25 24 20 26 23 23 26 24 18 22 17 20 18 19 17 32 21 37 40 40
44 44 45 45 45 46 46 46 46 47 48 49 48 41 34 27 22 20 28 38 33 34 41 36 36 30 34 34 35 27 25 28 25 23 27 36 32 21 26 19 26 24 23 20 26 37 46
43 44 44 44 44 44 44 44 44 44 44 46 38 40 26 28 18 25 38 38 40 43 45 41 44 49 47 46 41 45 39 33 29 25 25 27 38 44 27 25 23 24 24 27 23 28 35
44 44 44 44 44 43 42 41 41 41 42 36 36 41 25 33 34 31 42 40 40 45 44 48 46 51 53 51 53 49 48 43 35 31 31 30 30 38 39 39 27 26 27 28 31 29 36
44 44 44 44 44 43 42 40 39 38 36 35 39 42 30 23 40 40 41 46 43 46 45 46 51 51 49 55 56 50 51 50 44 38 39 32 36 36 41 46 44 32 29 29 30 31 36
44 44 44 44 43 42 40 38 35 33 32 29 33 39 30 28 27 40 44 46 44 38 41 40 44 43 44 50 48 54 54 47 47 46 40 35 39 41 40 36 30 31 31 28 28 33 34
43 42 41 41 41 40 38 35 32 29 26 25 26 31 33 37 36 38 37 35 44 45 39 37 40 38 42 49 50 48 41 45 44 42 40 35 42 40 39 37 34 42 31 31 33 32 33
40 40 40 39 36 34 32 31 30 27 21 22 26 28 28 34 35 37 37 37 40 37 37 42 43 41 40 43 46 50 43 42 40 38 36 36 39 37 38 36 37 44 41 37 34 36 38
38 37 35 34 30 26 25 24 25 29 15 19 17 21 25 27 31 32 32 36 36 29 32 33 38 43 43 43 41 52 51 52 54 52 46 39 32 34 42 32 30 45 43 42 37 34 32
35 32 30 29 29 22 12 11 11 2 7 8 15 24 24 29 31 33 36 36 36 37 38 38 37 39 42 47 45 49 53 55 55 53 46 46 42 38 38 31 40 36 33 36 38 32 30
32 28 24 23 23 20 11 12 9 9 18 7 12 18 19 30 29 35 33 35 34 36 36 38 35 35 35 39 43 45 54 57 58 53 48 44 40 35 36 39 37 42 36 30 31 37 27
28 26 25 23 22 20 19 21 16 10 17 15 11 11 21 24 25 30 34 34 37 35 32 32 36 36 30 30 32 42 48 46 52 46 42 43 40 42 35 40 45 42 32 31 21 32 18
30 32 31 27 24 21 19 24 29 19 16 12 14 12 17 21 27 26 30 32 32 33 33 33 29 31 26 27 30 37 42 39 52 52 41 38 35 36 39 42 44 26 39 21 30 30 16
31 29 26 22 19 18 13 9 17 25 18 10 13 13 14 24 36 23 34 35 35 34 35 28 28 19 26 22 23 29 34 38 45 46 38 34 27 32 30 41 43 30 23 33 25 16 15
27 21 14 13 12 12 10 6 1 3 6 4 2 9 16 4 27 33 34 36 35 32 31 28 26 23 21 25 23 23 27 29 37 44 37 40 25 27 26 24 16 11 13 15 14 13 17
Wind_Direction
339 337 334 332 330 328 325 323 321 320 318 316 313 309 305 300 295 289 284 281 278 275 271 268 266 263 309 358 214 230 306 313 359 332 192 195 202 207 199 219 222 205 195 203 171 141 135
337 336 334 331 329 328 327 325 322 318 315 313 312 309 306 302 298 292 287 281 276 273 269 263 255 235 48 210 215 200 180 311 150 146 171 188 200 204 230 209 218 233 251 249 193 150 131
332 331 330 328 326 326 325 324 322 319 314 311 308 305 301 299 296 292 288 283 278 270 261 251 227 76 166 208 161 342 133 13 329 182 171 191 212 207 217 212 231 242 243 239 212 337 108
329 326 325 323 324 324 323 321 319 317 314 311 309 305 301 299 296 294 290 286 278 267 247 222 11 24 221 201 209 198 201 219 287 274 160 186 188 204 214 239 235 231 236 230 228 164 131
327 326 323 323 322 321 320 318 318 316 314 311 308 305 300 298 297 296 293 288 278 255 357 357 1 360 228 197 169 190 178 178 155 258 192 252 218 193 210 204 212 210 212 219 210 193 132
324 322 322 321 321 320 318 317 316 316 314 312 310 307 303 299 298 298 297 290 272 340 356 6 126 5 205 162 135 158 180 175 159 254 222 262 264 222 187 184 186 181 193 207 210 146 162
323 322 321 320 317 318 321 323 322 319 314 310 310 309 307 302 298 298 308 327 320 324 337 329 359 179 233 228 119 139 158 165 160 173 181 184 224 195 201 188 187 196 196 196 206 157 254
325 323 322 321 321 322 323 322 321 319 316 312 309 308 307 304 297 293 315 323 299 306 287 306 230 224 223 217 195 178 154 149 168 179 176 183 198 195 258 250 202 200 210 218 252 178 188
328 328 327 326 325 324 323 323 322 320 317 314 312 309 307 305 296 310 306 309 317 309 306 282 254 235 217 206 204 183 163 167 172 181 184 194 208 205 206 230 229 208 203 209 189 233 287
330 329 328 327 326 325 324 323 322 322 320 319 316 313 313 313 317 309 302 312 315 316 308 302 308 302 244 218 211 195 185 183 189 192 198 214 200 191 194 202 202 232 200 214 222 275 198
332 331 329 327 326 326 325 323 321 320 320 319 318 316 315 316 309 305 305 304 303 312 300 319 309 333 313 197 319 205 201 190 198 201 213 200 198 198 206 198 204 208 258 207 229 246 280
335 334 332 330 328 328 327 325 324 323 321 319 317 315 314 318 311 305 301 295 305 301 292 309 306 303 307 212 236 311 200 225 260 230 213 209 245 208 205 203 199 224 257 256 255 261 263
337 334 332 331 330 327 325 324 324 323 322 319 315 313 310 311 309 307 308 305 290 281 303 302 292 283 269 270 234 228 238 215 214 222 213 224 211 218 208 207 215 200 252 255 258 257 262
339 336 333 331 328 326 325 324 324 323 321 320 317 310 312 306 306 302 303 288 275 289 275 293 300 286 271 271 261 243 256 220 221 227 265 233 224 208 216 207 212 211 225 247 254 257 265
338 336 335 333 330 328 326 324 323 321 320 319 316 318 312 306 293 286 280 270 278 279 289 300 289 284 279 264 266 254 246 240 233 224 235 246 241 272 225 229 220 228 208 229 264 264 267
341 339 337 335 333 331 329 327 324 323 322 321 316 314 310 309 297 271 270 267 276 279 289 293 285 280 275 278 282 254 250 249 244 232 233 261 270 250 263 236 251 228 261 235 239 258 260
343 341 339 338 336 334 333 331 330 328 327 324 317 309 316 318 293 269 267 274 279 278 279 282 278 274 274 272 275 269 270 257 247 239 234 244 259 256 259 244 228 242 227 244 262 248 263
344 342 340 338 336 334 333 332 332 332 331 328 316 301 314 313 292 274 275 279 282 280 280 275 275 273 271 272 268 268 266 266 263 244 244 241 256 257 258 260 241 235 247 246 252 261 264
345 343 342 340 337 335 333 331 332 332 334 328 312 305 310 302 281 280 283 281 281 281 280 279 275 273 273 266 266 263 266 263 264 271 244 245 244 255 257 257 258 231 242 245 249 262 261
345 344 343 342 340 338 335 333 330 332 333 330 316 304 310 312 293 286 285 283 283 286 285 287 284 280 276 268 264 260 263 259 262 258 263 263 243 238 246 246 256 259 237 242 240 250 253
346 345 345 344 343 342 340 336 333 331 333 334 321 305 308 294 291 295 293 291 284 281 282 289 279 282 278 267 268 260 262 265 258 259 261 262 253 240 241 249 252 252 259 237 241 246 250
348 347 346 346 346 347 346 341 337 332 333 326 319 316 313 301 298 293 289 288 290 289 288 278 277 278 279 268 262 260 263 261 253 255 263 260 257 239 243 240 243 251 253 256 245 251 258
348 349 349 350 352 353 354 351 342 323 344 330 339 330 319 311 303 295 290 291 294 301 288 285 284 276 273 272 269 261 259 255 251 252 254 253 256 247 242 239 250 247 243 253 259 252 252
350 351 352 352 353 356 351 274 254 252 5 350 340 321 319 308 302 293 286 287 293 293 289 288 288 279 267 287 269 263 254 251 250 248 247 247 254 260 238 239 241 252 248 249 255 265 259
357 358 356 357 359 0 358 267 8 10 352 356 344 328 326 304 304 288 284 286 290 293 294 286 289 292 285 283 264 260 248 247 247 245 243 242 249 252 240 234 246 248 250 249 257 259 268
4 3 2 3 6 10 11 5 9 17 350 352 345 341 320 318 311 292 275 276 273 287 298 295 293 296 282 276 265 251 242 241 238 242 235 238 247 253 243 238 238 244 250 256 265 255 258
10 9 9 11 14 18 18 4 348 3 359 360 351 354 332 322 309 296 282 281 283 288 293 299 300 291 277 269 260 249 242 245 235 233 236 240 245 251 238 241 245 256 244 262 248 256 260
10 13 18 23 26 26 28 28 25 1 4 13 354 351 332 315 290 261 251 252 265 280 271 284 287 290 253 278 264 252 244 241 239 237 237 235 238 243 245 239 242 249 251 247 250 265 269
18 22 24 27 28 30 33 33 3 234 224 71 170 23 352 323 306 262 252 244 243 239 240 241 253 259 259 266 277 255 250 243 238 233 233 227 233 247 261 255 254 259 253 260 255 258 269